sat.trackr.live / text

‹ back to catalog

AMOS-17

NORAD 44479 · 2019-050A

PAYLOAD ACTIVE UNKNOWN

§ Identity

Operator
Country
ISRA
Launch date
2019-08-06
Launch site
AFETR
Launch vehicle
Mass (kg)
RCS (m²)

Purposes: comms

External: N2YO · Heavens-Above · Gunter

§ Orbital elements

Epoch: 2026-05-25T03:49:24.301920Z

Period
1,436.11 min
Inclination
0.0147°
Eccentricity
0.0001433
Mean motion
1.00270595 rev/d
Perigee alt
35,780.9 km
Apogee alt
35,793.0 km
Semi-major
42,165.1 km
B*
0.0000e+0
RAAN
330.4056°
Arg perigee
95.6052°
Mean anomaly
251.0944°
Rev number
2,495

§ Raw data

AMOS-171 44479U 19050A   26145.15930905  .00000107  00000+0  00000+0 0  99992 44479   0.0147 330.4056 0001433  95.6052 251.0944  1.00270595 24955

JSON: /api/v1/satellites/44479 · /tle

For live sub-satellite position, see the globe view (requires WebGL).

§ Visibility from observer

Set your observer location to see the next 7 days of passes ≥ 10°. The values pass through the URL so the page stays shareable.

No JS? Fill the form by hand. The geolocation button needs JavaScript.